Flag for United Kingdom Weather past 2 weeks in Sunderland, England, United Kingdom

Now
39 °F

Passing clouds.


Feels Like: 36 °F
Forecast: 42 / 53 °F
Wind: 5 mph from Northwest

Location: Newcastle

Current Time: Apr 19, 2015 at 6:48:32 AM

Latest Report: Apr 19, 2015 at 6:20 AM


Visibility: N/A

Pressure: 30.36 "Hg

Humidity: 87%

Dew point: 36 °F

Location of SunderlandLocation

Historic Weather in Sunderland — Graph

°F

Sunderland temperature yesterday

Maximum temperature yesterday: 50 °F (at 2:20 PM)
Minimum temperature yesterday: 30 °F (at 4:20 AM)
Average temperature yesterday: 42 °F

Past Weeks' High & Low Weather Summary

 TemperatureHumidityPressure
High64 °F (Apr 5, 4:20 PM)100% (Apr 4, 5:50 AM)30.57 "Hg (Apr 4, 5:50 AM)
Low30 °F (Apr 18, 4:20 AM)41% (Apr 15, 2:50 PM)29.59 "Hg (Apr 11, 5:20 AM)
Average48 °F76%30.21 "Hg
* Reported Apr 4 5:20 AM — Apr 19 5:20 AM, Sunderland, Weather by CustomWeather, © 2015

Note: Actual official high and low records may vary slightly from our data, if they occured in-between our weather recording intervals... More about our weather records

Advertising

Sunderland weather history for previous 24 hours

 ConditionsComfort  
Time TempWeatherWind HumidityBarometerVisibility
5:20 AM
Sun, Apr 19
37 °FPassing clouds.6 mph93%30.39 "HgN/A
4:20 AM36 °FPassing clouds.3 mph93%30.39 "HgN/A
3:50 AM34 °FPassing clouds.2 mph93%30.39 "HgN/A
3:20 AM34 °FPassing clouds.1 mph93%30.39 "HgN/A
2:50 AM36 °FPassing clouds.2 mph93%30.39 "HgN/A
2:20 AM36 °FPassing clouds.2 mph93%30.42 "HgN/A
1:50 AM36 °FPassing clouds.2 mph93%30.42 "HgN/A
1:20 AM36 °FPassing clouds.3 mph87%30.42 "HgN/A
12:50 AM36 °FPassing clouds.2 mph87%30.45 "HgN/A
12:20 AM36 °FPassing clouds.2 mph87%30.45 "HgN/A
11:50 PM
Sat, Apr 18
37 °FPassing clouds.2 mph87%30.45 "HgN/A
11:20 PM37 °FPassing clouds.2 mph87%30.45 "HgN/A
10:50 PM39 °FPassing clouds.2 mph81%30.45 "HgN/A
10:20 PM39 °FPassing clouds.2 mph81%30.45 "HgN/A
9:50 PM39 °FPassing clouds.No wind81%30.45 "HgN/A
9:20 PM41 °FPassing clouds.5 mph76%30.45 "HgN/A
8:50 PM43 °FPartly sunny.5 mph76%30.45 "HgN/A
8:20 PM43 °FPartly sunny.8 mph76%30.45 "HgN/A
7:50 PM45 °FPartly sunny.7 mph71%30.45 "HgN/A
7:20 PM45 °FPartly sunny.8 mph71%30.45 "HgN/A
6:50 PM45 °FPartly sunny.10 mph71%30.45 "HgN/A
6:20 PM45 °FPartly sunny.8 mph76%30.45 "HgN/A
5:50 PM46 °FPartly sunny.9 mph71%30.45 "HgN/A
5:20 PM46 °FBroken clouds.9 mph71%30.45 "HgN/A
4:50 PM48 °FScattered clouds.10 mph66%30.45 "HgN/A
4:20 PM48 °FScattered clouds.10 mph66%30.45 "HgN/A
3:50 PM48 °FScattered clouds.8 mph66%30.48 "HgN/A
3:20 PM48 °FScattered clouds.8 mph66%30.48 "HgN/A
2:50 PM50 °FPartly sunny.7 mph62%30.48 "HgN/A
2:20 PM50 °FScattered clouds.9 mph62%30.51 "HgN/A
1:20 PM48 °FScattered clouds.9 mph71%30.51 "HgN/A
12:50 PM48 °FScattered clouds.8 mph66%30.51 "HgN/A
12:20 PM48 °FScattered clouds.9 mph66%30.51 "HgN/A
11:50 AM48 °FScattered clouds.10 mph66%30.51 "HgN/A
11:20 AM46 °FScattered clouds.8 mph71%30.51 "HgN/A
10:50 AM46 °FScattered clouds.9 mph76%30.51 "HgN/A
10:20 AM46 °FScattered clouds.6 mph76%30.51 "HgN/A
9:50 AM45 °FScattered clouds.6 mph87%30.51 "HgN/A
9:20 AM46 °FScattered clouds.6 mph93%30.48 "HgN/A
8:50 AM45 °FPassing clouds.5 mph93%30.48 "HgN/A
8:20 AM43 °FPassing clouds.2 mph100%30.48 "HgN/A
7:50 AM39 °FPassing clouds.2 mph100%30.48 "Hg5 mi
7:20 AM36 °FSleet. Fog.2 mph100%30.48 "Hg2 mi
6:50 AM34 °FLight fog.3 mph100%30.48 "Hg1 mi
6:20 AM32 °FFog.2 mph100%30.48 "Hg1 mi
Weather by CustomWeather, © 2015

See weather overviewHow to use our weather pages